History for Miami, FL

Tuesday, November 13, 2012 — View Current Conditions

Jump to Data:

Date:
Airport Code:
Recently Viewed Airport Codes: KMIA
Daily Summary
  Actual Average Record
Temperature
Mean Temperature 76°F 75°F  
Max Temperature 81°F 82°F 87°F (1948)
Min Temperature 71°F 68°F 46°F (1968)
Degree Days
Heating Degree Days 0 0  
Month to date heating degree days 1 0  
Since 1 July heating degree days 1 0  
Cooling Degree Days 11 10  
Month to date cooling degree days 96 146  
Year to date cooling degree days 4335 4218  
Growing Degree Days 26 (Base 50)    
Moisture
Dew Point 64°F    
Average Humidity 67    
Maximum Humidity 79    
Minimum Humidity 54    
Precipitation
Precipitation 0.00 in 0.12 in 3.09 in (1941)
Month to date precipitation 0.08 1.68  
Year to date precipitation 86.01 58.27  
Snow
Snow 0.00 in in in ()
Month to date snowfall 0.0  
Since 1 July snowfall 0.0  
Since 1 September snowfall 0.0  
Snow Depth 0.00 in    
Sea Level Pressure
Sea Level Pressure 30.10 in    
Wind
Wind Speed 7 mph (NE)    
Max Wind Speed 17 mph    
Max Gust Speed 22 mph    
Visibility 10 miles    
Events      
T = Trace of Precipitation, MM = Missing Value Source: NWS Daily Summary

Show full METARS

(help) - Comma Delimited File

Hourly Observations

Time(EST) Temperature Dew Point Humidity Sea Level Pressure Visibility Wind Direction Wind Speed Gust Speed Precipitation Events Conditions
12:53 AM 75.0°F 64.9°F 71% 30.12 in 10.0 miles ENE 8.1 mph - N/A   Partly Cloudy
1:53 AM 73.9°F 64.9°F 73% 30.09 in 10.0 miles ENE 5.8 mph - N/A   Clear
2:53 AM 73.9°F 66.0°F 76% 30.08 in 10.0 miles NE 3.5 mph - N/A   Scattered Clouds
3:53 AM 73.9°F 64.9°F 73% 30.08 in 10.0 miles NE 3.5 mph - N/A   Scattered Clouds
4:53 AM 73.0°F 64.0°F 73% 30.09 in 10.0 miles NNE 3.5 mph - N/A   Scattered Clouds
5:53 AM 72.0°F 64.0°F 76% 30.10 in 10.0 miles NNW 3.5 mph - N/A   Scattered Clouds
6:53 AM 72.0°F 64.9°F 78% 30.12 in 10.0 miles Calm Calm - N/A   Scattered Clouds
7:53 AM 75.0°F 64.9°F 71% 30.13 in 10.0 miles NNE 4.6 mph - N/A   Scattered Clouds
8:53 AM 77.0°F 66.0°F 69% 30.14 in 10.0 miles NE 8.1 mph - N/A   Mostly Cloudy
9:53 AM 80.1°F 64.0°F 58% 30.14 in 10.0 miles ENE 13.8 mph 19.6 mph N/A   Mostly Cloudy
10:53 AM 81.0°F 63.0°F 54% 30.13 in 10.0 miles East 15.0 mph - N/A   Mostly Cloudy
11:53 AM 79.0°F 62.1°F 56% 30.11 in 10.0 miles ENE 11.5 mph - N/A   Overcast
12:53 PM 81.0°F 63.0°F 54% 30.09 in 10.0 miles ENE 16.1 mph 21.9 mph N/A   Overcast
1:53 PM 79.0°F 60.1°F 52% 30.07 in 10.0 miles NE 10.4 mph - N/A   Overcast
2:53 PM 79.0°F 62.1°F 56% 30.06 in 10.0 miles NE 9.2 mph - N/A   Overcast
3:53 PM 78.1°F 64.0°F 62% 30.06 in 10.0 miles NE 10.4 mph - N/A   Overcast
4:53 PM 78.1°F 63.0°F 60% 30.06 in 10.0 miles NE 9.2 mph - N/A   Mostly Cloudy
5:53 PM 77.0°F 64.0°F 64% 30.07 in 10.0 miles NNE 3.5 mph - N/A   Mostly Cloudy
6:53 PM 75.9°F 64.0°F 67% 30.08 in 10.0 miles Calm Calm - N/A   Overcast
7:53 PM 75.0°F 64.0°F 69% 30.09 in 10.0 miles NE 4.6 mph - N/A   Mostly Cloudy
8:53 PM 75.0°F 64.0°F 69% 30.09 in 10.0 miles NE 4.6 mph - N/A   Mostly Cloudy
9:53 PM 75.0°F 64.0°F 69% 30.09 in 10.0 miles NE 6.9 mph - N/A   Scattered Clouds
10:53 PM 73.0°F 63.0°F 71% 30.09 in 10.0 miles North 3.5 mph - N/A   Scattered Clouds
11:53 PM 73.0°F 63.0°F 71% 30.09 in 10.0 miles Calm Calm - N/A   Scattered Clouds